Location: Del Amo
(33.8464°N, 118.2104°W)
Time: 22:36:19
(UTC+00:00)

ARIANE 6 FM1 Upper Stage - Pass Details

Date: 17 August 2024
Orbit: 566 x 594 km, 62.0° (Epoch: 16 September)

Event Time Altitude Azimuth Distance (km) Brightness Sun altitude
Rises 12:33:50 0° 187° (S) 2,768 5.9 -9.2°
Reaches altitude 10° 12:36:16 10° 176° (S) 1,880 5.2 -8.7°
Maximum altitude 12:39:57 29° 115° (ESE) 1,072 4.6 -8.0°
Drops below altitude 10° 12:43:41 10° 55° (NE) 1,907 6.9 -7.3°
Sets 12:46:09 0° 45° (NE) 2,816 7.6 -6.8°
